DECAYED

STARLINK-1545, 46156 (Decayed)

Orbit data source: Space-Track

STARLINK-1545, 46156 was a payload satellite owned by SpaceX/Seattle (US) in LEO that was launched on Tue, 18 Aug 2020 UTC via an FALCON 9 launch vehicle from the Air Force Eastern Test Range (AFETR). Payload-class satellites include a variety of spacecraft equipped with specific instruments for various scientific and technological missions. These include communications satellites like Starlink; space stations such as the ISS; scientific satellites like the Hubble; Earth observation satellites from companies like Planet Labs, Umbra, and HawkEye 360; GPS; miniature CubeSats for education and research; and military/defense satellites.

Not visible in the next 10 days
Identifier
46156, 2020-057AR
Orbit
Decayed
Country
Flag of USUS
Related business
Manufacturer
SpaceX/Seattle
Mission
Decayed Commercial Communications
Bus & Motor
STARLINK, Unknown motor
Mass
260 kg wet, ~248 kg dry
Launch date (UTC)
2020-08-18 (6 years ago)
Launch vehicle
FALCON 9
Launch site
Air Force Eastern Test Range (AFETR)
Object type
Payload
Rocket body
Debris
Shape & HBR
Box + 1 Pan, 10.1 m
Radar Cross Section
13.562 m², Large (>1 m²)

Expand to show TLE details & history
Last TLE update: 1 month ago

TLE from 1 month ago
0 STARLINK-1545
1 46156U 20057AR  26193.89902593  .09897584  12515-4  37208-3 0  9993
2 46156  53.0194 350.4530 0010701 290.7741  69.2160 16.43205886327925
Epoch: 2026-07-12T21:34Z
TLE epoch observation values (Epoch: 2026-07-12T21:34:35.840Z)
Latitude
0.00001°
Longitude
96.0124°
Altitude
155.741 km
Speed
7.816 km/s
True Right ascension
23h 21m 48s
True Declination
0° 00' 00"
Sunlit
Object was in full shadow at epoch
Visualization orbit readout
Latitude
Unknown
Longitude
Unknown
Altitude
Unknown
Speed
Unknown
Apparent Right ascension
Unknown
Apparent Declination
Unknown
Sunlit
N/A
Visualization observer readout
Local Sidereal Time
01:45:34
Azimuth
Unknown
Elevation
Unknown
Doppler factor
Unknown
Orbital elements
Apogee altitude
164.574 km
Perigee altitude
150.587 km
Semi-major axis
6,535.718 km
Eccentricity
0.00107
Inclination
53.0194°
RAAN
350.453°
Arg. of periapsis
290.7741°
True anomaly
69.3307°
Mean anomaly
69.216°
Eccentric anomaly
69.27334°
Mean motion
4.10774 °/min
Orbital period
87.64 mins
BSTAR
0.00037208
Loading maneuver chart data...
Computing Atmospheric mass density...

Documentation

Showing up to 5 results
|